EW0608 Weather Reports


time (UTC)temp
C
wind
direction
speed
KPH
gust
KPH
rain 1hr
cm
rain 24hr
cm
rain mn
cm
humidity
%
barometer
mb
20260508224905 20 276 3.2 8.0 0.00 1.19 1.19 42 1010.0
20260508224537 20 316 0.0 6.4 0.00 1.19 1.19 35 1009.8
20260508224337 20 48 3.2 6.4 0.00 1.19 1.19 36 1010.0
20260508223849 20 355 1.6 4.8 0.00 1.19 1.19 37 1009.9
20260508223344 20 230 1.6 4.8 0.00 1.19 1.19 37 1010.0
20260508223141 19 74 0.0 4.8 0.00 1.19 1.19 36 1010.0
20260508222837 20 355 0.0 11.3 0.00 1.19 1.19 40 1010.0
20260508222350 20 209 1.6 11.3 0.00 1.19 1.19 37 1010.1
20260508221841 20 333 3.2 11.3 0.00 1.19 1.19 36 1010.1
20260508221557 20 101 0.0 3.2 0.00 1.19 1.19 36 1010.0
20260508221354 20 101 1.6 8.0 0.00 1.19 1.19 38 1010.2
20260508220846 20 224 1.6 8.0 0.00 1.19 1.19 37 1010.2
20260508220339 20 327 3.2 4.8 0.00 1.19 1.19 40 1010.2
20260508220049 20 134 0.0 4.8 0.00 1.19 1.19 36 1010.1
20260508215848 20 57 1.6 3.2 0.00 1.19 1.19 36 1010.1
20260508215340 20 59 1.6 4.8 0.00 1.19 1.19 36 1010.2
20260508214852 20 332 1.6 6.4 0.00 1.19 1.19 37 1010.2
20260508214544 20 338 1.6 6.4 0.00 1.19 1.19 37 1010.2
20260508214343 20 253 3.2 6.4 0.00 1.19 1.19 36 1010.2
20260508213835 20 111 1.6 6.4 0.00 1.19 1.19 37 1010.2
20260508213347 20 40 1.6 8.0 0.00 1.19 1.19 36 1010.3
20260508213040 20 333 3.2 8.0 0.00 1.19 1.19 37 1010.3
20260508212839 20 290 4.8 8.0 0.00 1.19 1.19 36 1010.3
20260508212352 20 348 1.6 8.0 0.00 1.19 1.19 35 1010.4
20260508211904 20 92 1.6 8.0 0.00 1.19 1.19 35 1010.4
20260508211518 20 223 3.2 8.0 0.00 1.19 1.19 35 1010.5
20260508211415 20 291 3.2 8.0 0.00 1.19 1.19 35 1010.4
20260508210846 20 360 3.2 9.7 0.00 1.19 1.19 35 1010.4
20260508210340 20 38 3.2 9.7 0.00 1.19 1.19 35 1010.3
20260508210050 20 213 3.2 9.7 0.00 1.19 1.19 34 1010.4
20260508205849 20 78 0.0 6.4 0.00 1.24 1.19 36 1010.4
20260508205342 20 43 1.6 8.0 0.00 1.24 1.19 37 1010.5
20260508204855 21 331 526.3 526.3 0.00 0.00 1.19 34 1010.5
20260508204548 20 26 1.6 8.0 0.00 1.24 1.19 36 1010.6
20260508204347 20 71 1.6 8.0 0.00 1.24 1.19 34 1010.6
20260508203840 21 355 1.6 9.7 0.00 1.24 1.19 35 1010.7
20260508203337 20 47 0.0 6.4 0.00 1.24 1.19 36 1010.7
20260508203052 19 47 0.0 6.4 0.00 1.24 1.19 35 1010.7
20260508202850 20 126 0.0 6.4 0.00 1.24 1.19 36 1010.8
20260508202343 20 59 1.6 6.4 0.03 1.24 1.19 37 1010.9
20260508201855 20 53 1.6 8.0 0.03 1.24 1.19 36 1010.9
20260508201517 19 163 3.2 8.0 0.03 1.24 1.19 35 1010.9
20260508201408 20 187 3.2 6.4 0.03 1.24 1.19 35 1011.0
20260508200839 20 87 1.6 6.4 0.05 1.24 1.19 35 1011.0
20260508200352 20 40 1.6 8.0 0.05 1.24 1.19 34 1011.2
20260508200040 19 9 1.6 12.9 0.05 1.24 1.19 35 1011.1
20260508195839 20 247 3.2 12.9 0.05 1.24 1.19 34 1011.1
20260508195351 20 171 1.6 11.3 0.05 1.24 1.19 33 1011.1
20260508194901 20 142 3.2 16.1 0.08 1.24 1.19 33 1011.2
20260508194514 20 331 6.4 16.1 0.08 1.24 1.19 32 1011.1
20260508194413 21 32 4.8 16.1 0.10 1.24 1.19 32 1011.1
20260508193844 20 5 4.8 11.3 0.10 1.24 1.19 33 1011.1
20260508193336 20 139 3.2 11.3 0.10 1.24 1.19 33 1011.2
20260508193016 19 67 3.2 11.3 0.10 1.24 1.19 34 1011.1
20260508192909 20 111 4.8 11.3 0.10 1.24 1.19 33 1011.2
20260508192340 20 71 3.2 11.3 0.08 1.22 1.17 33 1011.4
20260508191852 19 167 1.6 0.0 0.00 0.00 1.17 34 1011.2
20260508191544 19 201 1.6 8.0 0.08 1.22 1.17 34 1011.3
20260508191343 19 57 3.2 8.0 0.08 1.22 1.17 33 1011.4
20260508190837 20 294 0.0 6.4 0.05 1.19 1.14 33 1011.4
20260508190410 20 78 1.6 11.3 0.10 1.19 1.14 32 1011.6
20260508190039 19 65 1.6 14.5 0.10 1.19 1.14 32 1011.5
20260508185839 19 67 3.2 14.5 0.13 1.19 1.14 33 1011.7
20260508185412 20 290 3.2 12.9 0.13 1.19 1.14 31 1011.7
20260508184844 21 36 6.4 12.9 0.10 1.17 1.12 30 1011.8
20260508184538 21 40 3.2 12.9 0.13 1.17 1.12 31 1011.9
20260508184337 21 49 1.6 14.5 0.10 1.14 1.09 32 1011.8
20260508183908 21 269 3.2 17.7 0.10 1.14 1.09 31 1011.8
20260508183339 20 133 1.6 11.3 0.10 1.14 1.09 32 1011.9
20260508183052 20 355 3.2 11.3 0.13 1.14 1.09 32 1011.8
20260508182851 20 82 4.8 11.3 0.15 1.14 1.09 31 1011.9
20260508182343 20 24 4.8 12.9 0.20 1.14 1.09 31 1011.9
20260508181836 21 300 6.4 16.1 0.20 1.14 1.09 30 1011.9
20260508181537 21 310 6.4 16.1 0.20 1.14 1.09 29 1012.0
20260508180854 21 160 4.8 16.1 0.23 1.09 1.04 30 1012.2
20260508180346 21 113 3.2 14.5 0.23 1.09 1.04 30 1012.0
20260508180038 21 117 6.4 14.5 0.23 1.09 1.04 30 1012.3
20260508175837 21 321 4.8 14.5 0.20 1.07 1.02 31 1012.2
20260508174848 19 189 6.4 16.1 0.23 1.07 1.02 32 1012.5
20260508174544 19 294 4.8 16.1 0.20 1.04 0.99 32 1012.5
20260508174340 19 85 4.8 16.1 0.20 1.04 0.99 33 1012.5
20260508173912 19 300 6.4 16.1 0.20 1.04 0.99 32 1012.6
20260508173403 18 124 6.4 16.1 0.20 1.04 0.99 33 1012.4
20260508173055 18 206 4.8 16.1 0.20 1.02 0.97 34 1012.5
20260508172854 18 161 8.0 16.1 0.20 0.99 0.94 33 1012.5
20260508172345 18 57 4.8 16.1 0.18 0.94 0.89 35 1012.7
20260508171859 18 355 3.2 14.5 0.18 0.94 0.89 34 1012.7
20260508171553 18 163 3.2 16.1 0.18 0.94 0.89 33 1012.7
20260508171350 18 105 4.8 16.1 0.20 0.94 0.89 34 1012.6
20260508170842 18 198 3.2 11.3 0.13 0.86 0.81 34 1012.8
20260508170356 18 271 6.4 12.9 0.13 0.86 0.81 33 1012.9
20260508170046 18 78 3.2 12.9 0.13 0.86 0.81 33 1012.9
20260508165845 19 202 6.4 12.9 0.23 0.86 0.81 32 1013.0
20260508165337 19 202 4.8 12.9 0.20 0.84 0.79 35 1012.9
20260508164848 18 325 3.2 9.7 0.20 0.84 0.79 36 1013.0
20260508164540 18 38 3.2 9.7 0.20 0.84 0.79 38 1013.0
20260508164340 18 5 3.2 14.5 0.20 0.84 0.79 37 1013.1
20260508163853 18 340 4.8 14.5 0.20 0.84 0.79 35 1013.2
20260508163344 19 347 4.8 14.5 0.20 0.84 0.79 33 1013.1
20260508163041 19 174 4.8 11.3 0.18 0.81 0.76 34 1013.2
20260508162837 19 97 6.4 11.3 0.15 0.79 0.74 35 1013.1
20260508162349 18 323 3.2 12.9 0.13 0.76 0.71 35 1013.3
20260508161842 17 323 6.4 20.9 0.18 0.76 0.71 38 1013.4
20260508161604 17 293 6.4 20.9 0.28 0.76 0.71 36 1013.4
20260508161352 17 157 6.4 12.9 0.25 0.74 0.69 36 1013.5
20260508160846 17 355 4.8 12.9 0.25 0.74 0.69 39 1013.6
20260508160359 17 66 4.8 11.3 0.25 0.74 0.69 39 1013.4
20260508160047 17 329 4.8 11.3 0.25 0.71 0.69 39 1013.5
20260508155847 17 340 6.4 14.5 0.18 0.64 0.58 38 1013.5
20260508155359 18 281 4.8 11.3 0.20 0.64 0.58 35 1013.6
20260508154849 18 68 6.4 11.3 0.28 0.64 0.58 39 1013.6
20260508154542 17 30 4.8 12.9 0.41 0.64 0.58 40 1013.6
20260508154341 17 87 3.2 12.9 0.41 0.64 0.58 40 1013.6
20260508153853 17 327 3.2 12.9 0.41 0.64 0.58 40 1013.7
20260508153346 17 327 6.4 11.3 0.43 0.64 0.58 39 1013.8
20260508153046 16 74 3.2 16.1 0.43 0.64 0.58 39 1013.7
20260508152843 17 56 4.8 16.1 0.43 0.64 0.58 40 1013.7
20260508152355 16 77 4.8 19.3 0.46 0.64 0.58 41 1013.8
20260508151848 17 219 8.0 19.3 0.41 0.58 0.53 39 1013.6
20260508151542 16 57 3.2 14.5 0.30 0.48 0.43 40 1013.6
20260508151341 16 51 4.8 16.1 0.30 0.48 0.43 39 1013.7
20260508150854 16 73 6.4 16.1 0.30 0.48 0.43 39 1013.9
20260508150408 16 46 8.0 20.9 0.30 0.48 0.43 39 1013.9
20260508150036 16 87 6.4 20.9 0.30 0.48 0.43 39 1013.8
20260508145836 16 37 3.2 12.9 0.28 0.46 0.41 41 1013.8
20260508145349 16 180 6.4 19.3 0.25 0.43 0.38 39 1014.0
20260508144902 16 218 6.4 19.3 0.18 0.36 0.30 40 1013.9
20260508144516 16 125 6.4 19.3 0.05 0.23 0.18 41 1014.2
20260508144415 16 59 4.8 16.1 0.05 0.23 0.18 40 1014.0
20260508143003 16 63 3.2 11.3 0.15 0.20 0.15 41 1014.3
20260508141602 15 15 4.8 14.5 0.13 0.18 0.13 41 1014.2
20260508140057 15 176 1.6 11.3 0.13 0.18 0.13 42 1014.3
20260508134558 13 148 4.8 17.7 0.13 0.18 0.13 44 1014.5
20260508133102 13 248 4.8 11.3 0.00 0.05 0.00 49 1014.5
20260508131548 12 195 4.8 9.7 0.00 0.05 0.00 53 1014.5
20260508130041 11 63 0.0 3.2 0.00 0.05 0.00 60 1014.7
20260508124536 10 323 3.2 8.0 0.00 0.05 0.00 65 1014.8
20260508123051 7 12 1.6 6.4 0.00 0.05 0.00 73 1015.0
20260508121547 6 117 1.6 6.4 0.00 0.05 0.00 80 1015.1
20260508120034 5 286 1.6 4.8 0.00 0.05 0.00 82 1015.1
20260508114532 3 191 0.0 0.0 0.00 0.05 0.00 88 1015.1
20260508113033 3 191 0.0 0.0 0.00 0.05 0.00 90 1015.0
20260508111530 2 191 0.0 0.0 0.00 0.05 0.00 94 1014.9
20260508110028 2 191 0.0 0.0 0.00 0.05 0.00 94 1014.7
20260508104526 1 191 0.0 0.0 0.00 0.05 0.00 94 1014.5
20260508103025 1 191 0.0 0.0 0.00 0.05 0.00 93 1014.3
20260508101523 1 191 0.0 0.0 0.00 0.05 0.00 93 1014.2
20260508100025 1 191 0.0 0.0 0.00 0.05 0.00 92 1014.1
20260508094518 2 191 0.0 0.0 0.00 0.05 0.00 91 1013.9
20260508093022 2 191 0.0 0.0 0.00 0.05 0.00 90 1014.1
20260508091524 2 191 0.0 3.2 0.00 0.05 0.00 90 1014.1
20260508090014 2 191 0.0 0.0 0.00 0.05 0.00 90 1013.9
20260508084508 3 191 0.0 0.0 0.00 0.05 0.00 89 1013.7
20260508083006 3 191 0.0 0.0 0.00 0.05 0.00 89 1013.5
20260508081504 3 191 0.0 1.6 0.00 0.05 0.00 89 1013.4
20260508080101 3 191 0.0 0.0 0.00 0.05 0.00 87 1013.2
20260508074557 4 191 0.0 0.0 0.00 0.05 0.00 86 1013.2
20260508073056 4 191 0.0 1.6 0.00 0.05 0.00 85 1013.4
20260508071554 5 191 1.6 3.2 0.00 0.05 0.00 83 1013.2
20260508070057 5 191 1.6 3.2 0.00 0.05 0.00 81 1013.2
20260508064546 5 190 0.0 1.6 0.00 0.05 0.00 80 1013.2
20260508063042 6 190 0.0 0.0 0.00 0.05 0.00 76 1013.1
20260508061540 6 190 0.0 0.0 0.00 0.05 0.00 74 1013.0
20260508060838 7 190 0.0 0.0 0.00 0.05 0.00 72 1013.1
20260508060353 7 190 0.0 0.0 0.00 0.05 0.00 71 1013.1
20260508060043 7 190 0.0 0.0 0.00 0.05 0.00 72 1013.0
20260508055842 7 190 0.0 0.0 0.00 0.05 0.00 70 1013.1
20260508055355 8 190 0.0 0.0 0.00 0.05 0.00 69 1013.2
20260508054847 8 190 0.0 0.0 0.00 0.00 0.00 67 1012.9
20260508054543 8 190 0.0 0.0 0.00 0.05 0.00 65 1013.0
20260508054338 8 190 0.0 0.0 0.00 0.05 0.00 64 1013.1
20260508053849 8 190 0.0 0.0 0.00 0.05 0.00 63 1013.0
20260508053343 8 190 0.0 0.0 0.00 0.05 0.00 63 1013.1
20260508053059 8 190 0.0 1.6 0.00 0.05 0.00 64 1012.9
20260508052854 9 190 0.0 1.6 0.00 0.05 0.00 63 1013.1
20260508051855 9 190 1.6 3.2 0.00 0.05 0.00 63 1013.0
20260508051548 9 190 0.0 3.2 0.00 0.05 0.00 62 1012.8
20260508051347 9 134 0.0 3.2 0.00 0.05 0.00 63 1013.0
20260508050840 9 134 0.0 4.8 0.00 0.05 0.00 62 1013.0
20260508050352 9 134 1.6 4.8 0.00 0.05 0.00 60 1013.0
20260508050004 9 134 0.0 4.8 0.00 0.05 0.00 63 1012.8
20260508045840 9 134 0.0 4.8 0.00 0.05 0.00 63 1013.0
20260508045412 9 134 1.6 4.8 0.00 0.05 0.00 62 1012.9
20260508044844 9 119 1.6 4.8 0.00 0.05 0.00 63 1012.8
20260508044553 9 198 0.0 4.8 0.00 0.05 0.00 64 1012.7
20260508044337 10 202 0.0 4.8 0.00 0.05 0.00 64 1012.8
20260508043850 10 32 0.0 3.2 0.00 0.05 0.00 64 1012.8
20260508043341 9 32 0.0 3.2 0.00 0.05 0.00 62 1012.7
20260508043018 9 32 0.0 3.2 0.00 0.05 0.00 66 1012.4
20260508042915 9 32 1.6 3.2 0.00 0.05 0.00 66 1012.6
20260508042406 9 32 0.0 3.2 0.00 0.05 0.00 66 1012.5
20260508041858 8 32 0.0 4.8 0.00 0.05 0.00 69 1012.4
20260508041509 8 27 0.0 4.8 0.00 0.05 0.00 71 1012.2
20260508041409 8 279 0.0 4.8 0.00 0.05 0.00 71 1012.3
20260508040839 8 84 0.0 4.8 0.00 0.05 0.00 74 1012.3
20260508040413 8 59 0.0 3.2 0.00 0.05 0.00 76 1012.2
20260508040042 7 59 0.0 3.2 0.00 0.05 0.00 77 1011.9
20260508035840 7 57 0.0 3.2 0.00 0.05 0.05 78 1012.1
20260508035351 7 196 1.6 6.4 0.00 0.05 0.05 80 1012.0
20260508034844 7 29 0.0 6.4 0.00 0.05 0.05 80 1011.9
20260508034544 7 302 1.6 6.4 0.00 0.05 0.05 80 1011.7
20260508034336 7 42 0.0 3.2 0.00 0.05 0.05 80 1011.9
20260508033850 7 42 0.0 3.2 0.00 0.05 0.05 79 1011.8
20260508033342 7 42 0.0 3.2 0.00 0.05 0.05 79 1011.7
20260508033040 7 42 0.0 3.2 0.00 0.05 0.05 79 1011.6
20260508032840 7 42 0.0 3.2 0.00 0.05 0.05 79 1011.8
20260508032353 7 42 0.0 3.2 0.00 0.05 0.05 79 1011.8
20260508031845 8 42 0.0 3.2 0.00 0.05 0.05 78 1011.7
20260508031536 7 42 0.0 3.2 0.00 0.05 0.05 78 1011.5
20260508031336 8 42 0.0 0.0 0.00 0.05 0.05 77 1011.6
20260508030849 8 42 0.0 1.6 0.00 0.05 0.05 76 1011.6
20260508030343 8 42 0.0 1.6 0.00 0.05 0.05 77 1011.6
20260508030100 8 42 0.0 1.6 0.00 0.05 0.05 78 1011.3
20260508025852 8 42 0.0 1.6 0.00 0.05 0.05 78 1011.5
20260508025345 8 42 0.0 1.6 0.00 0.05 0.05 78 1011.4
20260508024858 8 42 0.0 1.6 0.00 0.05 0.05 78 1011.4
20260508024551 8 42 0.0 1.6 0.00 0.05 0.05 77 1011.2
20260508024350 8 42 0.0 0.0 0.00 0.05 0.05 77 1011.3
20260508023844 8 42 0.0 1.6 0.00 0.05 0.05 75 1011.4
20260508023337 8 42 0.0 3.2 0.00 0.05 0.05 73 1011.4
20260508023048 8 42 0.0 3.2 0.00 0.05 0.05 73 1011.1
20260508022345 8 42 0.0 1.6 0.00 0.05 0.05 70 1011.2
20260508021838 9 42 0.0 1.6 0.00 0.05 0.05 69 1011.2
20260508021511 8 42 0.0 1.6 0.00 0.05 0.05 69 1010.9
20260508021411 9 42 0.0 1.6 0.00 0.05 0.05 68 1011.1
20260508020903 9 42 0.0 1.6 0.00 0.05 0.05 67 1011.1
20260508020356 10 42 0.0 0.0 0.00 0.05 0.05 66 1011.0
20260508020005 9 42 0.0 0.0 0.00 0.05 0.05 66 1010.8
20260508015905 10 42 0.0 0.0 0.00 0.05 0.05 66 1011.0
20260508015337 10 42 0.0 1.6 0.00 0.05 0.05 67 1010.9
20260508014851 10 42 0.0 1.6 0.00 0.05 0.05 66 1010.8
20260508014548 10 42 0.0 1.6 0.00 0.05 0.05 65 1010.5
20260508014345 10 42 0.0 0.0 0.00 0.05 0.05 65 1010.8
20260508013838 10 42 0.0 0.0 0.00 0.05 0.05 64 1010.8
20260508013411 11 42 0.0 0.0 0.00 0.05 0.05 64 1010.6
20260508013044 11 42 0.0 0.0 0.00 0.05 0.05 64 1010.4
20260508012842 11 42 0.0 0.0 0.00 0.05 0.05 64 1010.5
20260508012336 11 42 0.0 0.0 0.00 0.05 0.05 62 1010.5
20260508011848 11 42 0.0 0.0 0.00 0.05 0.05 61 1010.4
20260508011503 11 42 0.0 0.0 0.00 0.05 0.05 60 1010.2
20260508011401 12 42 0.0 0.0 0.00 0.05 0.05 60 1010.3
20260508010852 12 42 0.0 0.0 0.00 0.05 0.05 58 1010.2
20260508010346 12 42 0.0 0.0 0.00 0.05 0.05 57 1010.1
20260508010040 12 42 0.0 0.0 0.00 0.05 0.05 57 1009.9
20260508005840 12 42 0.0 0.0 0.00 0.05 0.05 56 1010.0
20260508005354 13 42 0.0 0.0 0.00 0.05 0.05 55 1010.0
20260508004847 13 42 0.0 1.6 0.00 0.05 0.05 53 1009.9
20260508004635 13 42 0.0 3.2 0.00 0.05 0.05 53 1009.6
20260508004435 13 42 0.0 3.2 0.00 0.05 0.05 52 1009.8
20260508003905 13 42 0.0 1.6 0.00 0.05 0.05 51 1009.8
20260508003341 14 41 0.0 0.0 0.00 0.05 0.05 51 1009.7
20260508003054 13 41 0.0 0.0 0.00 0.05 0.05 51 1009.5
20260508002853 14 41 0.0 0.0 0.00 0.05 0.05 50 1009.7
20260508002345 14 41 0.0 1.6 0.00 0.05 0.05 49 1009.6
20260508001858 15 41 0.0 1.6 0.00 0.05 0.05 50 1009.6
20260508001551 14 41 0.0 0.0 0.00 0.05 0.05 49 1009.3
20260508001350 15 41 0.0 1.6 0.00 0.05 0.05 48 1009.5
20260508000902 15 41 0.0 1.6 0.00 0.05 0.05 45 1009.4
20260508000414 15 41 0.0 1.6 0.00 0.05 0.05 44 1009.3
20260508000043 15 41 0.0 1.6 0.00 0.05 0.05 43 1009.0
20260507235842 16 41 0.0 1.6 0.00 0.05 0.05 43 1009.2
20260507235413 16 41 0.0 4.8 0.00 0.05 0.05 39 1009.1
20260507234603 16 46 1.6 6.4 0.00 0.05 0.05 39 1008.8
20260507233056 16 80 0.0 4.8 0.00 0.05 0.05 38 1008.6
20260507231558 17 85 0.0 3.2 0.00 0.05 0.05 38 1008.6
20260507230100 17 333 1.6 8.0 0.00 0.05 0.05 36 1008.4